Location: La Fredeussais
(48.1780°N, 1.3980°W)
Time: 16:12:13
(UTC+00:00)

Cosmos 2082 Rocket - Pass Details

Date: 09 May 2021
Orbit: 834 x 853 km, 71.0° (Epoch: 24 June)

Event Time Altitude Azimuth Distance (km) Brightness Sun altitude
Rises 20:20:23 0° 337° (NNW) 3,393 6.5 -7.8°
Reaches altitude 10° 20:23:31 10° 354° (N) 2,455 5.3 -8.2°
Maximum altitude 20:27:36 20° 41° (NE) 1,844 4.0 -8.7°
Drops below altitude 10° 20:31:40 10° 88° (E) 2,450 4.2 -9.3°
Enters shadow 20:32:54 - 96° (E) 2,794 4.4 -9.4°
